Flag for Canada Weather for the Past 2 Weeks in Happy Valley-Goose Bay, Newfoundland and Labrador, Canada

Now
21 °F

Snow flurries. Mostly cloudy.


Feels Like: 4 °F
Forecast: 22 / 37 °F
Wind: 24 mph from West

Location: Goose

Current Time: Apr 29, 2016 at 8:09:18 AM

Latest Report: Apr 29, 2016 at 7:00 AM


Visibility: 10 mi

Pressure: 29.60 "Hg

Humidity: 63%

Dew Point: 10 °F

Location of Happy Valley-Goose BayLocation

Historic Weather in Happy Valley-Goose Bay — Graph

°F

Happy Valley-Goose Bay Temperature Yesterday

Maximum temperature yesterday: 30 °F (at 2:00 PM)
Minimum temperature yesterday: 23 °F (at 5:00 AM)
Average temperature yesterday: 27 °F

High & Low Weather Summary for the Past Weeks

 TemperatureHumidityPressure
High48 °F (Apr 16, 5:00 PM)87% (Apr 22, 9:47 AM)30.67 "Hg (Apr 22, 9:47 AM)
Low5 °F (Apr 27, 5:00 AM)23% (Apr 16, 6:00 PM)29.52 "Hg (Apr 25, 1:00 PM)
Average30 °F63%30.00 "Hg
* Reported Apr 14 6:00 AM — Apr 29 6:00 AM, Happy Valley-Goose Bay, Weather by CustomWeather, © 2016

Note: Actual official high and low records may vary slightly from our data, if they occured in-between our weather recording intervals... More about our weather records

Advertising

Happy Valley-Goose Bay Weather History for the Previous 24 Hours

Scroll right to see more
 ConditionsComfort  
Time TempWeatherWind HumidityBarometerVisibility
6:00 AM
Fri, Apr 29
21 °FMostly cloudy.20 mph58%29.62 "Hg15 mi
5:00 AM21 °FMostly cloudy.16 mph58%29.64 "Hg15 mi
4:00 AM19 °FPartly cloudy.15 mph58%29.68 "Hg15 mi
3:00 AM19 °FPassing clouds.15 mph53%29.71 "Hg15 mi
2:00 AM19 °FPassing clouds.15 mph53%29.73 "Hg15 mi
1:00 AM19 °FPartly cloudy.12 mph53%29.77 "Hg15 mi
12:00 AM21 °FPartly cloudy.16 mph54%29.80 "Hg15 mi
11:00 PM
Thu, Apr 28
23 °FPassing clouds.16 mph54%29.83 "Hg15 mi
10:00 PM27 °FPartly cloudy.15 mph50%29.83 "Hg15 mi
9:00 PM30 °FPartly sunny.10 mph47%29.83 "Hg15 mi
8:00 PM30 °FPartly sunny.14 mph47%29.84 "Hg15 mi
7:00 PM30 °FPartly sunny.14 mph47%29.84 "Hg15 mi
6:00 PM30 °FLight mixture of precip. Partly sunny.16 mph55%29.85 "Hg15 mi
5:00 PM30 °FBroken clouds.13 mph51%29.87 "Hg15 mi
4:00 PM30 °FPartly sunny.20 mph59%29.88 "Hg15 mi
3:00 PM30 °FSnow flurries. Mostly cloudy.17 mph59%29.89 "Hg15 mi
2:00 PM30 °FSnow flurries. Mostly cloudy.16 mph69%29.90 "Hg12 mi
1:00 PM28 °FSnow flurries. Mostly cloudy.15 mph74%29.91 "Hg6 mi
12:55 PM28 °FSnow flurries. Mostly cloudy.16 mph80%29.90 "Hg4 mi
12:00 PM28 °FSnow flurries. Mostly cloudy.14 mph74%29.91 "Hg8 mi
11:00 AM28 °FLight snow. Mostly cloudy.13 mph74%29.93 "Hg8 mi
10:00 AM27 °FLight snow. Cloudy.9 mph74%29.94 "Hg4 mi
9:00 AM25 °FLight snow. Overcast.10 mph80%29.94 "Hg3 mi
8:00 AM25 °FLight snow. More clouds than sun.10 mph74%29.93 "Hg12 mi
Weather by CustomWeather, © 2016

See weather overviewHow to use our weather pages